Winfield, KS

2:49 PM CDT on April 30, 2017 (GMT -0500)
Strother

Weather History for KWLD - December, 2011

Change the Weather History Date:

Friday, December 23, 2011

  Actual Average Record
Temperature  
Mean Temperature 30 °F -  
Max Temperature 37 °F 42 °F 57 °F (2015)
Min Temperature 23 °F 22 °F 10 °F (2004)
Degree Days  
Heating Degree Days 35    
Moisture  
Dew Point 21 °F    
Average Humidity 75    
Maximum Humidity 88    
Minimum Humidity 54    
Precipitation  
Precipitation 0.00 in - - ()
Sea Level Pressure  
Sea Level Pressure 30.48 in    
Wind  
Wind Speed 7 mph (WNW)    
Max Wind Speed 12 mph    
Max Gust Speed -    
Visibility 10 miles    
Events      
Averages and records for this station are not official NWS values.
T = Trace of Precipitation, MM = Missing Value Source: NWS Daily Summary

Daily Weather History Graph

Daily Weather History Graph

Search for Another Location

Airport or City:

Trip Planner

Search our weather history database for the weather conditions in past years. The results will help you decide how hot, cold, wet, or windy it might be!

Date:

Astronomy

Dec. 23, 2011 Rise Set
Actual Time 7:39 AM CST 5:15 PM CST
Civil Twilight 7:09 AM CST 5:44 PM CST
Nautical Twilight 6:37 AM CST 6:17 PM CST
Astronomical Twilight 6:05 AM CST 6:48 PM CST
Moon 6:29 AM CST (12/23) 4:25 PM CST (12/23)
Length of Visible Light 10h 34m
Length of Day
9h 36m
Waning Crescent, 1% of the Moon is Illuminated
Dec 23
Waning Crescent
Dec 24
New
Jan 1
First Quarter
Jan 9
Full
Jan 16
Last Quarter

Hourly Weather History & Observations

Time (CST) Temp. Windchill Dew Point Humidity Pressure Visibility Wind Dir Wind Speed Gust Speed Precip Events Conditions
12:54 AM 27.0 °F 17.3 °F 21.9 °F 81% 30.46 in 10.0 mi North 10.4 mph - N/A   Clear
1:54 AM 27.0 °F 16.7 °F 21.0 °F 78% 30.47 in 10.0 mi North 11.5 mph - N/A   Clear
2:54 AM 25.0 °F 17.1 °F 19.9 °F 81% 30.50 in 10.0 mi North 6.9 mph - N/A   Clear
3:54 AM 24.1 °F 17.0 °F 19.0 °F 81% 30.50 in 10.0 mi North 5.8 mph - N/A   Clear
4:54 AM 23.0 °F 14.7 °F 19.0 °F 85% 30.50 in 10.0 mi North 6.9 mph - N/A   Clear
5:54 AM 23.0 °F 13.9 °F 19.9 °F 88% 30.50 in 10.0 mi NNW 8.1 mph - N/A   Clear
6:54 AM 23.0 °F 13.9 °F 19.9 °F 88% 30.51 in 10.0 mi NNW 8.1 mph - N/A   Clear
7:54 AM 23.0 °F 13.9 °F 19.9 °F 88% 30.54 in 10.0 mi NNW 8.1 mph - N/A   Clear
8:54 AM 26.1 °F 19.4 °F 21.0 °F 81% 30.53 in 10.0 mi NNW 5.8 mph - N/A   Clear
9:54 AM 28.0 °F 24.2 °F 21.0 °F 75% 30.55 in 10.0 mi North 3.5 mph - N/A   Clear
10:54 AM 30.0 °F 25.2 °F 21.0 °F 69% 30.55 in 10.0 mi NNW 4.6 mph - N/A   Clear
11:54 AM 32.0 °F - 21.9 °F 66% 30.51 in 10.0 mi Calm Calm - N/A   Clear
12:54 PM 34.0 °F 28.0 °F 23.0 °F 64% 30.47 in 10.0 mi NW 6.9 mph - N/A   Clear
1:54 PM 35.1 °F 28.6 °F 23.0 °F 61% 30.45 in 10.0 mi WNW 8.1 mph - N/A   Clear
2:54 PM 37.0 °F 33.3 °F 21.9 °F 54% 30.44 in 10.0 mi West 4.6 mph - N/A   Clear
3:54 PM 36.0 °F 31.1 °F 21.9 °F 57% 30.44 in 10.0 mi West 5.8 mph - N/A   Clear
4:54 PM 34.0 °F 28.0 °F 23.0 °F 64% 30.45 in 10.0 mi WSW 6.9 mph - N/A   Clear
5:54 PM 30.9 °F 26.2 °F 23.0 °F 72% 30.45 in 10.0 mi SW 4.6 mph - N/A   Clear
6:54 PM 30.0 °F 25.2 °F 23.0 °F 75% 30.45 in 10.0 mi SW 4.6 mph - N/A   Clear
7:54 PM 28.9 °F 21.9 °F 23.0 °F 78% 30.45 in 10.0 mi SW 6.9 mph - N/A   Clear
8:54 PM 28.9 °F 22.8 °F 21.9 °F 75% 30.44 in 10.0 mi SW 5.8 mph - N/A   Clear
9:54 PM 30.0 °F 22.4 °F 21.9 °F 72% 30.44 in 10.0 mi SW 8.1 mph - N/A   Clear
10:54 PM 28.0 °F 24.2 °F 21.9 °F 78% 30.43 in 10.0 mi WSW 3.5 mph - N/A   Clear
11:54 PM 27.0 °F 21.6 °F 21.9 °F 81% 30.43 in 10.0 mi SSW 4.6 mph - N/A   Clear